Theta_e
317 319 320 320 321 332 341 343 343 341 341 340 338 337 336 335 336 338 339 339 337 333 334 335 338 340 339 338 336 332 330 328
325 331 327 324 320 328 338 343 343 341 341 340 339 338 338 338 338 338 337 336 335 334 335 336 338 340 340 337 335 332 326 323
330 334 334 330 323 328 340 343 343 342 342 341 341 340 340 340 341 341 339 339 338 336 337 338 339 340 338 335 334 328 321 319
330 330 332 334 335 336 340 343 343 343 342 341 341 341 341 340 341 341 341 341 341 341 340 339 339 338 337 335 334 329 321 318
327 326 327 333 335 337 338 341 343 343 342 342 341 340 338 339 341 341 341 342 341 341 341 340 338 337 335 334 330 325 321 317
325 322 323 333 336 338 339 339 339 341 341 341 341 339 339 337 337 337 337 337 337 338 336 336 336 334 333 331 326 322 320 317
323 322 322 329 336 338 337 338 336 337 337 338 338 338 337 335 334 333 334 333 334 333 330 329 328 330 329 327 324 321 320 318
323 321 320 321 331 337 337 337 336 337 338 338 338 337 337 336 334 330 329 327 325 325 326 326 324 322 323 320 319 319 319 318
323 322 321 322 324 329 335 334 333 333 334 334 334 334 333 332 331 329 326 325 324 323 322 321 321 318 319 318 317 316 317 317
323 322 323 323 323 323 325 329 329 330 332 332 331 329 328 329 329 326 325 320 321 317 318 318 317 316 315 316 316 316 315 315
322 322 323 324 324 323 323 324 325 325 326 326 327 325 323 322 322 321 320 319 317 315 315 314 314 314 314 314 313 313 314 314
322 321 324 325 323 323 322 322 323 322 322 322 322 321 321 321 320 319 317 316 314 313 313 313 313 312 311 311 311 311 311 310
317 319 322 323 322 321 320 320 320 319 319 319 317 317 317 317 316 315 313 312 311 310 310 310 309 310 309 309 308 307 308 306
317 318 318 319 321 320 319 319 319 318 318 317 315 313 313 313 312 311 311 310 309 308 309 308 308 308 307 306 305 305 304 304
312 312 314 314 315 316 318 318 318 317 316 314 312 312 312 312 312 310 310 309 308 307 308 309 309 307 305 304 303 303 302 301
307 308 309 311 311 312 312 313 314 315 315 315 314 312 311 310 310 310 309 308 308 308 308 307 306 305 303 302 302 301 300 299
302 303 304 304 306 307 308 309 310 311 311 313 314 314 313 310 309 309 308 307 307 306 306 307 305 304 303 301 301 300 299 299
300 300 300 301 302 302 302 303 304 306 308 310 312 313 312 311 309 308 307 306 307 307 307 307 304 303 302 301 301 300 298 297
299 298 299 299 299 299 299 299 300 301 302 304 306 309 311 310 309 308 308 308 307 307 306 305 303 302 301 300 299 297 296 295
Wind_Speed
16 21 21 22 24 34 35 36 38 36 36 32 31 32 34 35 35 36 36 38 38 37 36 34 30 33 32 31 29 28 29 28
5 7 11 16 23 32 36 34 34 34 33 31 28 31 33 33 33 33 34 35 37 38 38 37 34 34 34 34 31 30 22 26
3 6 4 6 19 30 31 32 33 35 34 31 22 26 29 33 32 31 32 32 34 37 39 38 36 32 30 31 32 26 18 29
4 6 10 10 13 18 26 30 31 32 30 31 21 22 19 26 29 31 31 31 32 36 37 36 38 37 34 32 33 35 24 29
5 4 10 10 7 11 18 20 22 27 29 32 32 27 19 26 31 30 27 27 28 30 32 34 35 36 34 34 35 37 30 24
7 6 11 11 10 8 10 13 17 20 24 29 31 23 23 21 23 23 22 22 23 26 27 30 31 30 32 32 33 32 29 25
6 9 11 12 11 9 9 11 12 15 19 20 22 22 19 15 18 19 19 19 21 22 21 22 26 29 31 32 31 32 32 26
6 6 6 9 10 11 10 9 9 10 15 19 20 19 20 19 18 20 20 19 19 19 18 19 20 21 22 23 24 26 27 26
8 8 10 11 10 10 10 10 9 7 7 8 9 11 13 15 16 18 21 25 24 20 20 20 18 18 18 20 21 23 23 25
8 7 12 13 12 12 12 13 11 8 6 5 6 6 7 10 12 14 17 20 19 19 19 20 18 19 19 21 20 21 22 24
5 6 10 13 11 10 11 11 11 10 8 7 7 8 7 8 10 12 14 17 18 20 21 22 22 21 22 22 22 21 20 21
8 7 12 12 9 9 10 10 10 9 6 6 7 8 10 11 13 14 15 16 17 22 24 24 23 24 22 20 18 18 20 18
4 4 7 8 7 5 5 5 6 4 4 4 6 7 9 11 12 13 14 15 18 23 24 22 22 21 19 17 17 19 20 21
9 10 9 12 11 6 3 2 2 1 2 4 5 7 9 11 13 13 13 15 18 21 22 23 20 17 17 16 17 17 17 16
10 10 10 15 17 18 13 8 5 4 5 7 9 12 14 15 15 15 16 18 21 22 23 21 20 18 18 17 16 15 15 15
8 7 6 10 14 15 14 14 16 9 6 11 17 18 18 19 18 18 19 22 24 25 24 21 20 19 20 21 20 20 20 20
5 5 5 8 10 9 7 5 2 1 0 4 10 20 22 24 24 23 24 25 26 27 23 23 25 26 25 24 22 22 21 21
4 5 5 7 8 7 7 6 6 7 8 11 13 18 24 28 29 27 27 28 27 29 29 30 30 31 30 29 27 27 28 25
4 2 3 5 6 8 10 11 11 11 12 13 15 17 20 25 27 30 31 32 36 36 36 34 35 34 29 28 27 27 26 27
Wind_Direction
283 288 269 252 224 219 216 207 210 205 205 208 213 218 220 221 223 226 227 227 228 228 232 233 232 234 234 232 227 215 211 197
305 275 246 225 209 206 211 198 202 194 195 194 202 207 215 220 225 229 231 233 232 231 234 235 232 236 237 231 221 216 206 191
74 49 57 165 182 194 198 199 201 196 196 194 199 201 212 220 223 229 233 234 234 234 234 237 233 232 233 227 220 204 193 181
97 42 60 104 147 179 195 197 198 193 194 195 192 198 212 219 222 228 232 234 236 236 236 237 238 235 230 227 221 208 186 185
109 67 55 71 104 168 196 197 190 191 198 200 201 199 197 214 218 220 223 227 233 239 239 237 236 232 228 228 218 205 193 179
136 105 85 70 84 114 159 181 192 198 198 204 207 207 209 217 224 221 223 228 233 239 239 240 233 224 225 220 210 205 203 180
106 99 98 91 96 115 137 158 178 196 200 206 214 220 219 213 214 215 216 220 222 225 229 225 224 222 219 214 212 209 204 190
133 129 108 107 121 122 136 163 158 192 204 216 224 231 234 232 227 225 222 222 223 222 222 222 224 222 210 210 206 203 201 197
176 159 148 138 134 146 151 151 149 159 179 201 223 232 237 240 241 240 236 234 232 230 229 228 223 215 205 198 195 190 193 196
182 164 168 161 169 167 161 167 165 170 186 218 246 258 257 249 251 251 250 245 242 239 228 217 199 193 186 186 184 192 193 203
190 195 188 182 183 169 161 161 161 169 188 215 233 249 261 265 258 252 246 247 240 227 211 202 192 193 189 185 183 184 187 199
201 170 195 196 193 172 169 165 163 166 178 199 217 229 236 240 240 245 244 238 227 217 211 204 201 192 192 187 189 193 194 191
44 209 175 162 160 181 186 171 158 168 167 210 221 228 233 238 241 241 238 231 225 217 209 207 198 190 195 197 196 191 186 183
54 56 54 66 73 70 63 42 18 285 260 261 248 243 245 244 246 244 236 229 220 216 211 202 198 204 207 205 202 196 196 195
64 61 63 65 61 62 59 46 23 336 296 282 274 263 253 245 239 238 235 224 218 213 205 203 210 211 204 198 195 192 185 191
88 94 101 102 88 78 70 63 57 44 321 289 286 283 275 259 246 238 229 221 220 211 204 208 212 210 206 194 191 183 186 181
109 121 109 84 81 80 77 69 52 26 221 296 278 267 263 260 252 238 228 223 215 210 210 218 213 210 203 201 198 190 193 191
93 74 77 76 61 38 18 3 345 327 319 295 288 270 254 245 241 234 224 219 217 220 218 216 218 216 208 202 201 200 190 192
149 142 80 57 30 355 337 330 323 327 317 303 300 278 267 251 235 227 228 225 222 222 220 219 217 213 210 206 200 200 192 194